When you browse on this site, cookies collect data to enhance your experience and personalize the content and advertising you see.
Visit our Privacy Policy to learn more. By continuing to use the site, you agree to this use of cookies and data.
  • In Denmark
  • List of Countries
  • For 7 days
  • Water Temperature
  • Satellite Maps
  • Weather Map
  • Weather Widgets
  • user-avatar
    Login

    Hourly Weather Armagh

    Today, 23 March, Saturday

    Time Temperature Precipitation Wind Pressure Humidity
    00:00 +2°C° 0 mm 3 mps 766 mmHg 83%
    01:00 +2°C° 0 mm 3 mps 767 mmHg 84%
    02:00 +3°C° 0 mm 2 mps 767 mmHg 84%
    03:00 +3°C° 0 mm 2 mps 767 mmHg 85%
    04:00 +3°C° 0 mm 2 mps 768 mmHg 84%
    05:00 +3°C° 0 mm 2 mps 768 mmHg 83%
    06:00 +2°C° 0 mm 2 mps 768 mmHg 83%
    07:00 +4°C° 0 mm 2 mps 769 mmHg 79%
    08:00 +5°C° 0 mm 2 mps 769 mmHg 75%
    09:00 +6°C° 0 mm 2 mps 770 mmHg 71%
    10:00 +7°C° 0 mm 2 mps 770 mmHg 66%
    11:00 +8°C° 0 mm 2 mps 770 mmHg 62%
    12:00 +9°C° 0 mm 2 mps 770 mmHg 58%
    13:00 +9°C° 0 mm 2 mps 770 mmHg 59%
    14:00 +9°C° 0 mm 2 mps 770 mmHg 61%
    15:00 +9°C° 0 mm 2 mps 770 mmHg 62%
    16:00 +8°C° 0.1 mm 2 mps 770 mmHg 67%
    17:00 +8°C° 0.1 mm 2 mps 770 mmHg 72%
    18:00 +8°C° 0.1 mm 1 mps 770 mmHg 76%
    19:00 +7°C° 0 mm 1 mps 770 mmHg 78%
    20:00 +6°C° 0 mm 1 mps 770 mmHg 80%
    21:00 +5°C° 0 mm 1 mps 770 mmHg 82%
    22:00 +4°C° 0 mm 1 mps 770 mmHg 85%
    23:00 +3°C° 0 mm 2 mps 770 mmHg 87%

    Tomorrow, 24 March, Sunday

    Time Temperature Precipitation Wind Pressure Humidity
    00:00 +2°C° 0 mm 2 mps 770 mmHg 89%
    01:00 +2°C° 0 mm 2 mps 769 mmHg 90%
    02:00 +1°C° 0 mm 2 mps 769 mmHg 91%
    03:00 +1°C° 0 mm 2 mps 769 mmHg 92%
    04:00 0°C° 0 mm 3 mps 769 mmHg 92%
    05:00 0°C° 0 mm 3 mps 769 mmHg 92%
    06:00 0°C° 0 mm 3 mps 769 mmHg 92%
    07:00 +1°C° 0 mm 4 mps 769 mmHg 87%
    08:00 +2°C° 0 mm 5 mps 769 mmHg 81%
    09:00 +5°C° 0 mm 5 mps 769 mmHg 75%
    10:00 +5°C° 0 mm 6 mps 769 mmHg 73%
    11:00 +7°C° 0 mm 6 mps 769 mmHg 70%
    12:00 +8°C° 0 mm 7 mps 769 mmHg 68%
    13:00 +8°C° 0.1 mm 6 mps 769 mmHg 69%
    14:00 +8°C° 0.1 mm 6 mps 769 mmHg 70%
    15:00 +9°C° 0.1 mm 6 mps 769 mmHg 71%
    16:00 +8°C° 0 mm 5 mps 769 mmHg 73%
    17:00 +7°C° 0 mm 5 mps 769 mmHg 76%
    18:00 +7°C° 0 mm 4 mps 769 mmHg 79%
    19:00 +5°C° 0 mm 3 mps 770 mmHg 83%
    20:00 +4°C° 0 mm 3 mps 770 mmHg 87%
    21:00 +3°C° 0 mm 3 mps 770 mmHg 90%
    22:00 +3°C° 0 mm 3 mps 770 mmHg 91%
    23:00 +3°C° 0 mm 3 mps 770 mmHg 91%

    Day after tomorrow, 25 March, Monday

    Time Temperature Precipitation Wind Pressure Humidity
    00:00 +3°C° 0 mm 3 mps 771 mmHg 91%
    01:00 +2°C° 0 mm 3 mps 771 mmHg 92%
    02:00 +3°C° 0 mm 2 mps 771 mmHg 93%
    03:00 +3°C° 0 mm 2 mps 771 mmHg 94%
    04:00 +3°C° 0 mm 2 mps 771 mmHg 94%
    05:00 +3°C° 0 mm 2 mps 771 mmHg 94%
    06:00 +3°C° 0 mm 2 mps 771 mmHg 94%
    07:00 +5°C° 0 mm 2 mps 772 mmHg 90%
    08:00 +6°C° 0 mm 2 mps 772 mmHg 85%
    09:00 +8°C° 0 mm 1 mps 772 mmHg 81%
    10:00 +10°C° 0 mm 1 mps 772 mmHg 75%
    11:00 +11°C° 0 mm 1 mps 772 mmHg 69%
    12:00 +12°C° 0 mm 1 mps 772 mmHg 63%
    13:00 +12°C° 0 mm 1 mps 772 mmHg 64%
    14:00 +12°C° 0 mm 1 mps 772 mmHg 65%
    15:00 +11°C° 0 mm 1 mps 772 mmHg 66%
    16:00 +11°C° 0 mm 1 mps 772 mmHg 70%
    17:00 +10°C° 0 mm 1 mps 772 mmHg 73%
    18:00 +10°C° 0 mm 1 mps 772 mmHg 76%
    19:00 +9°C° 0 mm 1 mps 772 mmHg 79%
    20:00 +8°C° 0 mm 1 mps 772 mmHg 81%
    21:00 +7°C° 0 mm 1 mps 773 mmHg 83%
    22:00 +6°C° 0 mm 1 mps 772 mmHg 86%
    23:00 +5°C° 0 mm 1 mps 772 mmHg 88%

    26 March, Tuesday

    Time Temperature Precipitation Wind Pressure Humidity
    00:00 +4°C° 0 mm 2 mps 772 mmHg 91%
    01:00 +3°C° 0 mm 2 mps 772 mmHg 92%
    02:00 +3°C° 0 mm 2 mps 772 mmHg 93%
    03:00 +3°C° 0 mm 2 mps 772 mmHg 94%
    04:00 +3°C° 0 mm 2 mps 771 mmHg 95%
    05:00 +3°C° 0 mm 2 mps 771 mmHg 95%
    06:00 +2°C° 0 mm 2 mps 771 mmHg 96%
    07:00 +3°C° 0 mm 3 mps 771 mmHg 92%
    08:00 +5°C° 0 mm 3 mps 771 mmHg 88%
    09:00 +6°C° 0 mm 4 mps 771 mmHg 83%
    10:00 +8°C° 0 mm 4 mps 771 mmHg 78%
    11:00 +10°C° 0 mm 4 mps 771 mmHg 73%
    12:00 +11°C° 0 mm 4 mps 771 mmHg 68%
    13:00 +12°C° 0 mm 4 mps 771 mmHg 67%
    14:00 +12°C° 0 mm 4 mps 770 mmHg 67%
    15:00 +13°C° 0 mm 4 mps 770 mmHg 67%
    16:00 +12°C° 0 mm 4 mps 770 mmHg 71%
    17:00 +11°C° 0 mm 3 mps 770 mmHg 76%
    18:00 +10°C° 0 mm 3 mps 770 mmHg 81%
    19:00 +9°C° 0 mm 2 mps 770 mmHg 84%
    20:00 +7°C° 0 mm 2 mps 770 mmHg 88%
    21:00 +6°C° 0 mm 2 mps 771 mmHg 92%
    22:00 +5°C° 0 mm 2 mps 771 mmHg 93%
    23:00 +5°C° 0 mm 2 mps 770 mmHg 94%

    27 March, Wednesday

    Time Temperature Precipitation Wind Pressure Humidity
    00:00 +4°C° 0 mm 2 mps 770 mmHg 96%
    01:00 +4°C° 0 mm 2 mps 770 mmHg 96%
    02:00 +4°C° 0 mm 2 mps 770 mmHg 97%
    03:00 +4°C° 0 mm 2 mps 770 mmHg 97%
    04:00 +4°C° 0 mm 2 mps 771 mmHg 98%
    05:00 +4°C° 0 mm 2 mps 771 mmHg 98%
    06:00 +4°C° 0 mm 2 mps 771 mmHg 98%
    07:00 +5°C° 0 mm 2 mps 771 mmHg 96%
    08:00 +5°C° 0 mm 3 mps 771 mmHg 94%
    09:00 +7°C° 0 mm 3 mps 771 mmHg 92%
    10:00 +8°C° 0 mm 3 mps 772 mmHg 88%
    11:00 +9°C° 0 mm 3 mps 772 mmHg 84%
    12:00 +10°C° 0 mm 2 mps 772 mmHg 80%
    13:00 +12°C° 0 mm 2 mps 772 mmHg 76%
    14:00 +14°C° 0 mm 2 mps 772 mmHg 72%
    15:00 +15°C° 0 mm 2 mps 771 mmHg 69%
    16:00 +14°C° 0 mm 2 mps 771 mmHg 73%
    17:00 +13°C° 0 mm 1 mps 771 mmHg 78%
    18:00 +12°C° 0 mm 1 mps 771 mmHg 82%
    19:00 +11°C° 0 mm 1 mps 771 mmHg 85%
    20:00 +10°C° 0 mm 1 mps 771 mmHg 88%
    21:00 +8°C° 0 mm 1 mps 771 mmHg 90%
    22:00 +8°C° 0 mm 1 mps 771 mmHg 91%
    23:00 +7°C° 0 mm 1 mps 771 mmHg 92%

    28 March, Thursday

    Time Temperature Precipitation Wind Pressure Humidity
    00:00 +7°C° 0 mm 1 mps 771 mmHg 93%
    01:00 +7°C° 0 mm 1 mps 771 mmHg 94%
    02:00 +7°C° 0 mm 1 mps 771 mmHg 94%
    03:00 +6°C° 0 mm 1 mps 771 mmHg 94%
    04:00 +6°C° 0 mm 1 mps 771 mmHg 94%
    05:00 +6°C° 0 mm 1 mps 771 mmHg 94%
    06:00 +5°C° 0 mm 1 mps 771 mmHg 94%
    07:00 +7°C° 0 mm 1 mps 771 mmHg 91%
    08:00 +8°C° 0 mm 2 mps 771 mmHg 88%
    09:00 +9°C° 0 mm 2 mps 771 mmHg 84%
    10:00 +12°C° 0 mm 2 mps 771 mmHg 79%
    11:00 +12°C° 0 mm 3 mps 771 mmHg 73%
    12:00 +14°C° 0 mm 3 mps 770 mmHg 67%
    13:00 +14°C° 0 mm 3 mps 770 mmHg 65%
    14:00 +14°C° 0 mm 3 mps 770 mmHg 63%
    15:00 +16°C° 0 mm 3 mps 769 mmHg 62%
    16:00 +14°C° 0 mm 3 mps 769 mmHg 67%
    17:00 +14°C° 0 mm 2 mps 769 mmHg 72%
    18:00 +13°C° 0 mm 2 mps 769 mmHg 78%
    19:00 +10°C° 0 mm 2 mps 769 mmHg 81%
    20:00 +9°C° 0 mm 2 mps 769 mmHg 85%
    21:00 +7°C° 0 mm 2 mps 769 mmHg 89%
    22:00 +7°C° 0 mm 2 mps 769 mmHg 90%
    23:00 +7°C° 0 mm 2 mps 769 mmHg 91%
    Show more